Weather History for Beckley, WV

Change the Weather History Date:

Monday, December 1, 2014

  Actual Average Record
Temperature  
Mean Temperature 49 °F 38 °F  
Max Temperature 59 °F 47 °F 75 °F (1909)
Min Temperature 38 °F 30 °F -7 °F (1896)
Degree Days  
Heating Degree Days 16 27  
Month to date heating degree days 16 27  
Since 1 July heating degree days 1257 1167  
Cooling Degree Days 0 0  
Month to date cooling degree days 0 0  
Year to date cooling degree days 602 557  
Moisture  
Dew Point 43 °F    
Average Humidity 83    
Maximum Humidity 100    
Minimum Humidity 66    
Precipitation  
Precipitation 0.13 in 0.10 in 1.02 in (1991)
Month to date precipitation 0.13 0.10  
Year to date precipitation 34.35 38.29  
Snow  
Snow 0.00 in - - ()
Month to date snowfall 0.0  
Since 1 September snowfall 3.7  
Snow Depth 0.00 in    
Sea Level Pressure  
Sea Level Pressure 30.30 in    
Wind  
Wind Speed 9 mph (WNW)    
Max Wind Speed 17 mph    
Max Gust Speed 21 mph    
Visibility 7 miles    
Events Fog , Rain    
T = Trace of Precipitation, MM = Missing Value Source: NWS Daily Summary

Daily Weather History Graph

Daily Weather History Graph

Search for Another Location

Airport:

Trip Planner

Search our weather history database for the weather conditions in past years. The results will help you decide how hot, cold, wet, or windy it might be!

Date:

Astronomy

Dec. 01, 2014 Rise Set
Actual Time 7:21 AM EST 5:05 PM EST
Civil Twilight 6:52 AM EST 5:34 PM EST
Nautical Twilight 6:19 AM EST 6:07 PM EST
Astronomical Twilight 5:48 AM EST 6:38 PM EST
Moon 2:05 PM EST (12/1) 2:01 AM EST (12/1)
Length of Visible Light 10h 42m
Length of Day
9h 44m
Waxing Gibbous, 75% of the Moon is Illuminated
Dec 1
Waxing Gibbous
Dec 6
Full
Dec 14
Last Quarter
Dec 21
New
Dec 28
First Quarter

Hourly Weather History & Observations

Time (EST) Temp. Windchill Dew Point Humidity Pressure Visibility Wind Dir Wind Speed Gust Speed Precip Events Conditions
12:51 AM 55.0 °F - 45.0 °F 69% 30.19 in 10.0 mi SW 5.8 mph - N/A   Overcast
1:51 AM 54.0 °F - 44.1 °F 69% 30.20 in 10.0 mi SW 9.2 mph - N/A   Mostly Cloudy
2:51 AM 54.0 °F - 44.1 °F 69% 30.21 in 10.0 mi WSW 9.2 mph - N/A   Partly Cloudy
3:44 AM 53.6 °F - 44.6 °F 72% 30.24 in 10.0 mi SW 10.4 mph - N/A   Mostly Cloudy
3:51 AM 55.0 °F - 45.0 °F 69% 30.22 in 10.0 mi SW 10.4 mph - N/A   Overcast
4:10 AM 54.0 °F - 45.0 °F 72% 30.25 in 10.0 mi SW 9.2 mph - N/A   Overcast
4:47 AM 53.6 °F - 44.6 °F 72% 30.25 in 10.0 mi SW 8.1 mph - N/A   Overcast
4:51 AM 54.0 °F - 45.0 °F 72% 30.22 in 10.0 mi SW 11.5 mph 18.4 mph N/A   Overcast
5:43 AM 54.0 °F - 45.0 °F 72% 30.26 in 10.0 mi SW 10.4 mph - N/A   Overcast
5:51 AM 54.0 °F - 45.0 °F 72% 30.24 in 10.0 mi SW 11.5 mph - N/A   Mostly Cloudy
6:51 AM 53.1 °F - 45.0 °F 74% 30.25 in 10.0 mi SW 12.7 mph - N/A   Scattered Clouds
7:51 AM 54.0 °F - 46.0 °F 75% 30.26 in 10.0 mi SW 13.8 mph - N/A   Mostly Cloudy
8:25 AM 54.0 °F - 46.0 °F 75% 30.29 in 10.0 mi WSW 10.4 mph - 0.00 in   Mostly Cloudy
8:51 AM 55.0 °F - 46.9 °F 74% 30.27 in 10.0 mi SW 9.2 mph - 0.00 in   Overcast
9:07 AM 55.0 °F - 46.9 °F 74% 30.30 in 10.0 mi SW 8.1 mph - N/A   Overcast
9:33 AM 55.9 °F - 46.9 °F 72% 30.31 in 10.0 mi SW 10.4 mph - N/A   Overcast
9:51 AM 55.9 °F - 46.9 °F 72% 30.28 in 10.0 mi SW 8.1 mph - N/A   Overcast
10:51 AM 55.9 °F - 48.0 °F 75% 30.28 in 10.0 mi WSW 10.4 mph - N/A   Overcast
11:51 AM 57.0 °F - 48.0 °F 72% 30.25 in 10.0 mi SW 8.1 mph - N/A   Overcast
12:51 PM 57.9 °F - 48.9 °F 72% 30.23 in 10.0 mi WSW 9.2 mph - N/A   Overcast
1:51 PM 57.0 °F - 53.1 °F 87% 30.23 in 10.0 mi West 6.9 mph - 0.04 in   Overcast
2:30 PM 57.0 °F - 52.0 °F 83% 30.26 in 9.0 mi West 11.5 mph - 0.02 in Rain Light Rain
2:40 PM 55.9 °F - 52.0 °F 87% 30.26 in 10.0 mi WNW 6.9 mph - 0.02 in   Overcast
2:51 PM 55.9 °F - 53.1 °F 90% 30.24 in 10.0 mi WNW 6.9 mph - 0.02 in   Overcast
3:03 PM 55.9 °F - 52.0 °F 87% 30.27 in 10.0 mi WNW 6.9 mph - N/A   Overcast
3:17 PM 55.0 °F - 52.0 °F 89% 30.27 in 8.0 mi NNW 11.5 mph - N/A   Overcast
3:20 PM 54.0 °F - 52.0 °F 93% 30.28 in 0.8 mi North 12.7 mph - N/A   Overcast
3:23 PM 53.1 °F - 50.0 °F 89% 30.28 in 0.2 mi North 15.0 mph - N/A Fog Fog
3:31 PM 50.0 °F - 48.0 °F 93% 30.28 in 0.2 mi North 15.0 mph - N/A Fog Fog
3:51 PM 48.0 °F - 46.0 °F 93% 30.28 in 0.2 mi North 15.0 mph - N/A Fog Fog
4:21 PM 44.1 °F 38.1 °F 42.1 °F 93% 30.31 in 0.8 mi North 11.5 mph - N/A   Mist
4:36 PM 43.0 °F 35.7 °F 42.1 °F 97% 30.32 in 2.5 mi North 15.0 mph - N/A   Overcast
4:43 PM 43.0 °F 36.4 °F 41.0 °F 93% 30.33 in 5.0 mi North 12.7 mph - N/A   Overcast
4:51 PM 42.1 °F 34.5 °F 41.0 °F 96% 30.34 in 5.0 mi North 15.0 mph 19.6 mph N/A   Overcast
5:51 PM 41.0 °F 37.1 °F 39.9 °F 96% 30.35 in 3.0 mi NNE 5.8 mph - N/A   Overcast
6:51 PM 39.9 °F 32.9 °F 39.0 °F 97% 30.37 in 3.0 mi North 11.5 mph - N/A   Overcast
6:58 PM 39.9 °F 33.9 °F 37.9 °F 93% 30.35 in 1.8 mi North 9.2 mph - N/A   Overcast
7:26 PM 39.9 °F 32.9 °F 37.9 °F 93% 30.36 in 3.0 mi North 11.5 mph - N/A   Overcast
7:51 PM 39.9 °F 32.9 °F 37.9 °F 93% 30.39 in 7.0 mi North 11.5 mph - 0.00 in Rain Light Rain
8:15 PM 39.0 °F 31.0 °F 37.0 °F 93% 30.39 in 10.0 mi NNW 13.8 mph - 0.00 in Rain Light Rain
8:51 PM 39.0 °F 34.8 °F 36.0 °F 89% 30.40 in 6.0 mi NNE 5.8 mph - 0.03 in Rain Light Rain
9:24 PM 37.9 °F 32.7 °F 36.0 °F 93% 30.38 in 10.0 mi NNE 6.9 mph - 0.02 in Rain Light Rain
9:51 PM 37.9 °F 31.5 °F 36.0 °F 93% 30.39 in 10.0 mi NNE 9.2 mph - 0.02 in Rain Light Rain
10:51 PM 37.9 °F 35.5 °F 36.0 °F 93% 30.38 in 2.5 mi ENE 3.5 mph - 0.01 in Rain Light Rain
11:00 PM 37.9 °F 34.4 °F 36.0 °F 93% 30.36 in 1.8 mi East 4.6 mph - 0.00 in Rain Light Rain
11:18 PM 37.9 °F 34.4 °F 36.0 °F 93% 30.36 in 3.0 mi NNW 4.6 mph - 0.01 in Rain Light Rain
11:22 PM 37.4 °F 34.9 °F 35.6 °F 93% 30.36 in 1.8 mi NNW 3.5 mph - N/A   Overcast
11:32 PM 37.9 °F 35.5 °F 36.0 °F 93% 30.36 in 0.5 mi NNW 3.5 mph - 0.01 in Fog , Rain Light Rain
11:41 PM 37.9 °F 34.4 °F 36.0 °F 93% 30.36 in 0.2 mi NNW 4.6 mph - 0.01 in Fog , Rain Light Rain
11:48 PM 37.4 °F 33.8 °F 35.6 °F 93% 30.36 in 0.5 mi NNW 4.6 mph - 0.01 in Fog , Rain Light Rain
11:51 PM 37.9 °F 35.5 °F 36.0 °F 93% 30.37 in 0.5 mi NW 3.5 mph - 0.01 in Fog Fog